"startDT [UTC]","vpos","CH4 [ppm]","stdev(CH4) [ppm]","CO2 [ppm]","stdev(CO2) [ppm]","H2O [ppm]","stdev(H2O)","p_LGR [torr]","T_LGR [C]","mt1_LGR [us]","mt2_LGR [us]","T_ECpre [C]","T_EC1 [C]","T_EC2 [C]","p_inlet [hPa]","p_in [hPa]","p_out [hPa]","T_inlet [C]","RH_inlet [%]","dwpt_inlet [C]","T_vent [C]","RH_vent [%]","dwpt_vent [C]","flow_vent [l min-1]","flow_inlet [l min-1]","dwpt_sample [C]","T_room [C]"
2012-02-11 00:00:00,0.0,1.8994,0.0009,400.00,0.29,103.9,36.9,138.11,28.39,24.60,36.31,0.04,-272.74,-272.74,-47,560,-920,21.8,2.9,-25.7,22.1,3.0,-25.2,5.73,2.47,-26.8,27.8
2012-02-11 00:01:00,0.0,1.8994,0.0012,399.88,0.40,97.8,36.2,138.11,28.40,24.60,36.32,0.04,-272.74,-272.74,-47,561,-920,21.8,2.9,-25.6,22.1,3.0,-25.1,5.73,2.30,-26.8,27.8
2012-02-11 00:02:00,0.0,1.8994,0.0009,399.87,0.37,95.6,32.3,138.11,28.40,24.60,36.32,0.04,-272.74,-272.74,-46,560,-920,21.8,2.9,-25.7,22.1,3.0,-25.2,5.73,2.37,-26.8,27.9
2012-02-11 00:03:00,0.0,1.8992,0.0009,400.07,0.37,105.9,38.3,138.11,28.40,24.60,36.31,0.04,-272.74,-272.74,-47,560,-920,21.8,2.9,-25.8,22.1,3.0,-25.2,5.73,2.42,-26.8,27.9
2012-02-11 00:04:00,0.0,1.8989,0.0010,399.94,0.34,95.4,34.1,138.11,28.41,24.60,36.32,0.04,-272.74,-272.74,-47,560,-920,21.8,2.9,-25.7,22.1,3.0,-25.2,5.73,2.26,-26.8,27.9
2012-02-11 00:05:00,0.0,1.8991,0.0009,399.88,0.35,99.9,30.0,138.11,28.41,24.60,36.32,0.04,-272.74,-272.74,-47,560,-920,21.8,2.9,-25.7,22.1,3.0,-25.2,5.73,2.48,-26.8,27.9
2012-02-11 00:06:00,0.0,1.8989,0.0010,399.96,0.34,94.0,28.3,138.11,28.42,24.60,36.32,0.04,-272.74,-272.74,-47,561,-920,21.8,2.9,-25.7,22.1,3.0,-25.1,5.73,2.27,-26.7,27.9
2012-02-11 00:07:00,0.0,1.9000,0.0008,399.99,0.35,99.3,34.8,138.11,28.42,24.60,36.32,0.04,-272.74,-272.73,-47,561,-920,21.8,2.9,-25.7,22.1,3.0,-25.2,5.73,2.40,-26.7,28.0
2012-02-11 00:08:00,0.0,1.8998,0.0009,399.91,0.39,97.2,34.1,138.11,28.43,24.60,36.33,0.04,-272.74,-272.74,-47,561,-920,21.8,2.9,-25.7,22.1,3.0,-25.1,5.73,2.39,-26.7,28.0
2012-02-11 00:09:00,0.0,1.8997,0.0009,399.95,0.36,96.5,29.8,138.11,28.44,24.60,36.33,0.04,-272.74,-272.74,-47,560,-920,21.8,2.9,-25.7,22.1,3.0,-25.2,5.73,2.27,-26.7,28.0
2012-02-11 00:10:00,0.0,1.9001,0.0009,400.01,0.37,107.1,32.4,138.11,28.44,24.60,36.32,0.04,-272.74,-272.74,-47,561,-920,21.8,2.9,-25.7,22.1,3.0,-25.2,5.73,2.48,-26.7,28.0
2012-02-11 00:11:00,0.0,1.9001,0.0009,399.94,0.40,99.0,39.1,138.11,28.45,24.60,36.32,0.04,-272.73,-272.74,-47,561,-920,21.8,2.9,-25.8,22.1,2.9,-25.3,5.73,2.25,-26.7,27.9
2012-02-11 00:12:00,0.0,1.8999,0.0010,399.80,0.41,93.5,30.5,138.11,28.45,24.60,36.33,0.04,-272.74,-272.74,-47,561,-920,21.9,2.9,-25.7,22.1,2.9,-25.3,5.73,2.43,-26.7,27.9
2012-02-11 00:13:00,0.0,1.8994,0.0009,399.89,0.36,101.0,26.9,138.11,28.46,24.60,36.33,0.04,-272.74,-272.74,-47,561,-920,21.9,2.9,-25.6,22.2,3.0,-25.2,5.73,2.35,-26.7,27.9
2012-02-11 00:14:00,0.0,1.8996,0.0010,400.00,0.36,100.8,35.3,138.11,28.46,24.60,36.32,0.04,-272.74,-272.74,-47,561,-920,21.9,2.9,-25.7,22.2,2.9,-25.3,5.73,2.31,-26.7,28.0
2012-02-11 00:15:00,0.0,1.8995,0.0009,399.93,0.33,99.9,39.7,138.11,28.47,24.60,36.33,0.04,-272.74,-272.74,-47,561,-920,21.9,2.9,-25.8,22.1,2.9,-25.3,5.73,2.46,-26.7,28.0
2012-02-11 00:16:00,0.0,1.8994,0.0009,399.93,0.31,103.1,30.0,138.11,28.47,24.60,36.33,0.04,-272.74,-272.73,-47,561,-920,21.9,2.9,-25.7,22.2,2.9,-25.2,5.73,2.24,-26.7,28.1
2012-02-11 00:17:00,0.0,1.8999,0.0008,400.02,0.33,102.1,32.4,138.11,28.48,24.60,36.33,0.04,-272.74,-272.74,-47,561,-920,21.9,2.9,-25.7,22.2,2.9,-25.2,5.73,2.46,-26.6,28.1
2012-02-11 00:18:00,0.0,1.9000,0.0009,400.12,0.33,112.0,31.0,138.11,28.49,24.60,36.32,0.04,-272.74,-272.73,-47,562,-920,21.9,2.9,-25.7,22.2,3.0,-25.1,5.73,2.29,-26.6,28.1
2012-02-11 00:19:00,0.0,1.9001,0.0010,399.95,0.32,99.1,34.5,138.11,28.49,24.60,36.33,0.04,-272.74,-272.74,-47,562,-919,21.9,2.9,-25.6,22.2,3.0,-25.1,5.73,2.37,-26.6,28.1
2012-02-11 00:20:00,0.0,1.9000,0.0008,400.11,0.35,103.3,31.1,138.11,28.49,24.60,36.32,0.04,-272.74,-272.74,-48,561,-920,21.9,2.9,-25.5,22.2,3.0,-25.0,5.73,2.39,-26.6,28.0
2012-02-11 00:21:00,0.0,1.8995,0.0010,399.96,0.39,103.7,31.2,138.11,28.50,24.60,36.33,0.04,-272.74,-272.74,-47,562,-920,21.9,2.9,-25.5,22.2,3.0,-25.0,5.73,2.29,-26.6,28.0
2012-02-11 00:22:00,0.0,1.9000,0.0008,400.01,0.36,95.7,31.3,138.11,28.51,24.60,36.32,0.04,-272.74,-272.74,-47,561,-919,21.9,2.9,-25.5,22.2,3.0,-25.0,5.73,2.46,-26.6,28.0
2012-02-11 00:23:00,0.0,1.8999,0.0010,400.01,0.33,110.6,29.6,138.11,28.51,24.60,36.33,0.04,-272.73,-272.74,-48,561,-919,21.9,2.9,-25.4,22.2,3.0,-25.0,5.73,2.24,-26.6,28.0
2012-02-11 00:24:00,0.0,1.8999,0.0011,400.06,0.31,95.0,29.6,138.11,28.52,24.60,36.33,0.04,-272.74,-272.74,-47,561,-919,21.9,3.0,-25.4,22.2,3.0,-24.9,5.73,2.47,-26.6,28.0
2012-02-11 00:25:00,0.0,1.9002,0.0008,399.95,0.38,103.3,35.7,138.11,28.53,24.60,36.33,0.04,-272.74,-272.74,-48,561,-919,21.9,2.9,-25.5,22.2,3.0,-25.0,5.73,2.26,-26.6,28.0
2012-02-11 00:26:00,0.0,1.9000,0.0010,400.12,0.28,102.5,36.0,138.11,28.53,24.60,36.32,0.04,-272.73,-272.74,-48,561,-919,21.9,2.9,-25.5,22.2,3.0,-25.1,5.73,2.42,-26.6,28.0
2012-02-11 00:27:00,0.0,1.9002,0.0009,400.01,0.36,113.2,33.6,138.11,28.53,24.60,36.33,0.04,-272.74,-272.74,-47,561,-920,21.9,2.9,-25.5,22.2,3.0,-25.1,5.73,2.40,-26.6,27.5
2012-02-11 00:28:00,0.0,1.8995,0.0010,400.04,0.33,92.4,33.5,138.12,28.53,24.61,36.33,0.04,-272.74,-272.74,-47,562,-920,21.9,2.9,-25.5,22.2,3.0,-25.0,5.73,2.33,-26.8,27.0
2012-02-11 00:29:00,0.0,1.8990,0.0010,399.91,0.36,70.9,35.6,138.13,28.52,24.61,36.33,0.04,-272.74,-272.74,-48,561,-920,21.8,2.9,-25.6,22.1,3.0,-25.2,5.73,2.38,-27.1,26.6
2012-02-11 00:30:00,0.0,1.8986,0.0009,399.94,0.38,56.8,32.2,138.13,28.51,24.60,36.32,0.04,-272.73,-272.73,-48,561,-920,21.8,2.9,-25.6,22.0,3.0,-25.1,5.73,2.41,-27.3,26.2
2012-02-11 00:31:00,0.0,1.8972,0.0009,399.72,0.37,27.4,25.6,138.14,28.48,24.60,36.33,0.04,-272.74,-272.74,-48,561,-920,21.7,2.9,-25.6,22.0,3.0,-25.1,5.73,2.37,-27.6,25.9
2012-02-11 00:32:00,0.0,1.8963,0.0009,399.80,0.40,11.8,18.5,138.15,28.45,24.60,36.32,0.04,-272.74,-272.74,-48,561,-920,21.7,3.0,-25.5,21.9,3.0,-25.2,5.73,2.30,-27.8,25.7
2012-02-11 00:33:00,0.0,1.8950,0.0008,399.65,0.43,4.8,13.3,138.16,28.41,24.60,36.32,0.04,-272.74,-272.73,-48,560,-920,21.6,3.0,-25.5,21.8,3.0,-25.2,5.73,2.27,-28.0,25.4
2012-02-11 00:34:00,0.0,1.8944,0.0009,399.80,0.39,1.9,8.7,138.17,28.37,24.60,36.32,0.04,-272.74,-272.74,-48,560,-920,21.5,3.0,-25.6,21.7,3.0,-25.2,5.73,2.33,-28.2,25.2
2012-02-11 00:35:00,0.0,1.8938,0.0008,399.87,0.45,-0.1,4.6,138.17,28.33,24.60,36.31,0.04,-272.73,-272.73,-48,559,-920,21.5,3.0,-25.6,21.6,3.0,-25.3,5.73,2.38,-28.4,25.6
2012-02-11 00:36:00,0.0,1.8938,0.0009,399.85,0.40,0.2,5.9,138.17,28.29,24.60,36.31,0.04,-272.73,-272.74,-50,559,-920,21.4,3.0,-25.6,21.5,3.0,-25.3,5.73,2.43,-28.4,25.9
2012-02-11 00:37:00,0.0,1.8939,0.0010,399.84,0.38,-0.2,3.1,138.17,28.26,24.60,36.31,0.04,-272.74,-272.73,-49,558,-919,21.4,3.0,-25.7,21.5,3.0,-25.4,5.73,2.43,-28.3,26.1
2012-02-11 00:38:00,0.0,1.8934,0.0007,399.75,0.41,2.7,10.5,138.16,28.23,24.60,36.31,0.04,-272.74,-272.74,-49,558,-920,21.4,3.0,-25.6,21.5,3.0,-25.3,5.73,2.26,-28.2,26.2
2012-02-11 00:39:00,0.0,1.8931,0.0011,399.62,0.39,4.3,11.9,138.16,28.21,24.60,36.31,0.04,-272.74,-272.74,-48,558,-919,21.3,3.0,-25.6,21.5,3.1,-25.2,5.73,2.37,-28.2,26.3
2012-02-11 00:40:00,0.0,1.8929,0.0010,399.65,0.40,1.9,7.7,138.15,28.20,24.60,36.31,0.04,-272.73,-272.74,-48,558,-919,21.3,3.0,-25.6,21.5,3.1,-25.2,5.73,2.45,-28.1,26.4
2012-02-11 00:41:00,0.0,1.8927,0.0010,399.58,0.39,6.6,15.0,138.15,28.19,24.60,36.31,0.04,-272.74,-272.74,-49,557,-918,21.3,3.0,-25.6,21.5,3.1,-25.1,5.73,2.25,-28.0,26.5
2012-02-11 00:42:00,0.0,1.8925,0.0010,399.47,0.39,7.4,13.8,138.15,28.18,24.60,36.32,0.04,-272.74,-272.75,-48,558,-918,21.3,3.0,-25.6,21.5,3.1,-25.1,5.73,2.39,-28.0,26.5
2012-02-11 00:43:00,0.0,1.8930,0.0009,399.65,0.37,6.7,14.6,138.14,28.18,24.60,36.30,0.04,-272.73,-272.74,-48,557,-918,21.3,3.0,-25.5,21.6,3.1,-25.1,5.73,2.42,-27.9,26.6
2012-02-11 00:44:00,0.0,1.8933,0.0009,399.55,0.43,6.8,15.3,138.14,28.18,24.59,36.31,0.04,-272.74,-272.74,-49,557,-918,21.3,3.1,-25.4,21.6,3.1,-24.9,5.73,2.24,-27.8,26.6
2012-02-11 00:45:00,0.0,1.8936,0.0007,399.49,0.43,8.2,17.3,138.14,28.18,24.60,36.31,0.04,-272.74,-272.74,-48,557,-918,21.3,3.1,-25.3,21.6,3.2,-24.9,5.73,2.44,-27.8,26.6
2012-02-11 00:46:00,0.0,1.8936,0.0010,399.58,0.36,16.7,20.4,138.14,28.18,24.60,36.31,0.04,-272.74,-272.74,-48,557,-918,21.3,3.1,-25.3,21.6,3.1,-24.9,5.73,2.34,-27.7,26.6
2012-02-11 00:47:00,0.0,1.8950,0.0010,399.55,0.35,17.2,23.7,138.14,28.19,24.59,36.31,0.04,-272.74,-272.74,-48,556,-918,21.3,3.1,-25.3,21.6,3.2,-24.9,5.73,2.29,-27.7,26.5
2012-02-11 00:48:00,0.0,1.8947,0.0009,399.55,0.32,23.8,25.5,138.14,28.19,24.60,36.31,0.04,-272.74,-272.74,-48,557,-918,21.3,3.1,-25.2,21.6,3.2,-24.8,5.73,2.47,-27.6,26.5
2012-02-11 00:49:00,0.0,1.8948,0.0008,399.78,0.47,31.6,27.8,138.13,28.19,24.60,36.31,0.04,-272.74,-272.73,-48,557,-918,21.3,3.1,-25.3,21.6,3.1,-24.9,5.73,2.27,-27.6,26.5
2012-02-11 00:50:00,0.0,1.8957,0.0009,399.65,0.39,27.2,28.7,138.13,28.20,24.60,36.32,0.04,-272.72,-272.74,-48,556,-918,21.3,3.1,-25.3,21.6,3.2,-24.9,5.73,2.36,-27.6,26.5
2012-02-11 00:51:00,0.0,1.8957,0.0009,399.75,0.39,43.4,33.3,138.13,28.20,24.60,36.31,0.04,-272.74,-272.74,-48,557,-918,21.4,3.1,-25.2,21.6,3.2,-24.8,5.73,2.44,-27.6,26.5
2012-02-11 00:52:00,0.0,1.8956,0.0008,399.73,0.40,39.5,30.5,138.13,28.21,24.60,36.31,0.04,-272.74,-272.74,-47,557,-918,21.3,3.1,-25.1,21.6,3.2,-24.6,5.73,2.25,-27.6,26.6
2012-02-11 00:53:00,0.0,1.8957,0.0010,399.69,0.37,43.3,28.9,138.13,28.21,24.60,36.31,0.04,-272.74,-272.73,-48,556,-918,21.4,3.1,-25.0,21.6,3.2,-24.6,5.73,2.43,-27.5,26.6
2012-02-11 00:54:00,0.0,1.8964,0.0008,399.70,0.38,47.1,29.6,138.13,28.21,24.60,36.31,0.04,-272.73,-272.74,-48,556,-918,21.3,3.1,-25.1,21.6,3.2,-24.6,5.73,2.39,-27.5,26.7
2012-02-11 00:55:00,0.0,1.8965,0.0011,399.81,0.41,48.8,28.1,138.13,28.22,24.60,36.32,0.04,-272.74,-272.74,-47,557,-918,21.4,3.1,-25.1,21.7,3.2,-24.7,5.73,2.26,-27.4,26.7
2012-02-11 00:56:00,0.0,1.8963,0.0010,399.84,0.38,55.4,35.3,138.13,28.22,24.60,36.31,0.04,-272.73,-272.74,-47,557,-918,21.4,3.1,-25.1,21.7,3.2,-24.6,5.73,2.47,-27.4,26.8
2012-02-11 00:57:00,0.0,1.8969,0.0008,399.92,0.42,57.7,29.5,138.13,28.22,24.59,36.31,0.04,-272.74,-272.73,-48,557,-918,21.4,3.1,-25.1,21.7,3.2,-24.6,5.73,2.33,-27.4,26.8
2012-02-11 00:58:00,0.0,1.8964,0.0010,399.82,0.39,57.3,26.8,138.13,28.23,24.60,36.31,0.04,-272.73,-272.74,-47,557,-918,21.4,3.2,-25.0,21.7,3.2,-24.6,5.73,2.30,-27.3,26.9
2012-02-11 00:59:00,0.0,1.8968,0.0007,399.90,0.39,60.7,37.3,138.13,28.23,24.60,36.30,0.04,-272.74,-272.74,-47,557,-918,21.4,3.2,-25.0,21.7,3.2,-24.6,5.73,2.48,-27.3,26.9
2012-02-11 01:00:00,0.0,1.8969,0.0009,399.87,0.40,62.5,30.7,138.13,28.23,24.60,36.31,0.04,-272.73,-272.74,-47,557,-919,21.4,3.2,-25.0,21.7,3.2,-24.6,5.73,2.28,-27.3,26.9
2012-02-11 01:01:00,0.0,1.8973,0.0009,399.82,0.42,69.0,36.0,138.13,28.23,24.60,36.32,0.04,-272.73,-272.73,-47,557,-919,21.4,3.2,-25.0,21.7,3.2,-24.5,5.73,2.36,-27.3,26.9
2012-02-11 01:02:00,0.0,1.8977,0.0008,399.92,0.39,64.2,32.2,138.12,28.24,24.60,36.31,0.04,-272.74,-272.75,-47,558,-919,21.5,3.1,-25.0,21.7,3.2,-24.6,5.73,2.46,-27.2,27.0
2012-02-11 01:03:00,0.0,1.8984,0.0010,400.00,0.44,80.9,32.2,138.13,28.24,24.59,36.31,0.04,-272.73,-272.73,-47,557,-919,21.4,3.1,-25.0,21.7,3.2,-24.6,5.73,2.25,-27.2,27.0
2012-02-11 01:04:00,0.0,1.8983,0.0009,399.88,0.36,66.3,37.5,138.12,28.24,24.60,36.32,0.04,-272.73,-272.74,-47,557,-919,21.5,3.1,-25.1,21.7,3.2,-24.7,5.73,2.42,-27.2,27.1
2012-02-11 01:05:00,0.0,1.8980,0.0009,399.95,0.37,73.2,33.2,138.12,28.24,24.60,36.32,0.04,-272.73,-272.74,-47,557,-919,21.5,3.1,-25.2,21.7,3.2,-24.7,5.73,2.40,-27.2,27.1
2012-02-11 01:06:00,0.0,1.8978,0.0007,399.97,0.41,86.1,32.9,138.12,28.25,24.60,36.31,0.04,-272.74,-272.74,-47,558,-919,21.5,3.1,-25.2,21.7,3.1,-24.8,5.73,2.26,-27.1,27.1
2012-02-11 01:07:00,0.0,1.8988,0.0009,400.05,0.38,74.6,31.7,138.12,28.25,24.60,36.31,0.04,-272.74,-272.73,-47,557,-919,21.5,3.1,-25.1,21.8,3.2,-24.7,5.73,2.46,-27.1,27.2
2012-02-11 01:08:00,0.0,1.8988,0.0009,399.98,0.36,80.5,37.5,138.12,28.25,24.60,36.31,0.04,-272.74,-272.74,-47,558,-919,21.5,3.1,-25.1,21.8,3.2,-24.7,5.73,2.36,-27.0,27.2
2012-02-11 01:09:00,0.0,1.8990,0.0009,400.03,0.34,83.8,31.3,138.12,28.26,24.60,36.31,0.04,-272.74,-272.74,-46,558,-919,21.5,3.1,-25.1,21.8,3.2,-24.7,5.73,2.28,-27.0,27.3
2012-02-11 01:10:00,0.0,1.8997,0.0010,400.20,0.35,83.5,32.0,138.12,28.26,24.60,36.31,0.04,-272.73,-272.74,-47,558,-919,21.5,3.1,-25.2,21.8,3.2,-24.7,5.73,2.48,-27.0,27.3
2012-02-11 01:11:00,0.0,1.8995,0.0008,400.14,0.36,84.1,32.4,138.12,28.26,24.60,36.31,0.04,-272.74,-272.74,-47,558,-919,21.5,3.1,-25.2,21.8,3.1,-24.8,5.73,2.30,-27.0,27.3
2012-02-11 01:12:00,0.0,1.9000,0.0008,400.14,0.36,82.1,31.6,138.12,28.27,24.60,36.32,0.04,-272.74,-272.74,-46,558,-919,21.5,3.1,-25.3,21.8,3.1,-24.8,5.73,2.33,-27.0,27.3
2012-02-11 01:13:00,0.0,1.9010,0.0007,400.18,0.33,93.0,32.5,138.12,28.27,24.60,36.31,0.04,-272.73,-272.74,-47,558,-919,21.5,3.0,-25.4,21.8,3.1,-24.9,5.73,2.47,-26.9,27.4
2012-02-11 01:14:00,0.0,1.9007,0.0008,400.12,0.38,90.8,34.1,138.12,28.27,24.60,36.31,0.04,-272.74,-272.74,-47,558,-919,21.5,3.0,-25.6,21.8,3.0,-25.1,5.73,2.25,-26.9,27.4
2012-02-11 01:15:00,0.0,1.9018,0.0009,400.30,0.31,86.1,29.0,138.12,28.28,24.59,36.31,0.04,-272.74,-272.74,-46,558,-919,21.5,2.9,-25.7,21.8,3.0,-25.2,5.73,2.41,-26.9,27.5
2012-02-11 01:16:00,0.0,1.9017,0.0010,400.33,0.33,84.2,29.6,138.12,28.28,24.60,36.31,0.04,-272.74,-272.73,-47,558,-919,21.5,2.9,-25.8,21.8,3.0,-25.3,5.73,2.41,-26.9,27.5
2012-02-11 01:17:00,0.0,1.9012,0.0010,400.33,0.40,100.2,38.6,138.12,28.28,24.60,36.31,0.04,-272.74,-272.73,-47,559,-917,21.5,2.9,-25.8,21.8,3.0,-25.4,5.73,2.25,-26.9,27.5
2012-02-11 01:18:00,0.0,1.9016,0.0010,400.25,0.33,87.4,30.8,138.12,28.29,24.60,36.32,0.04,-272.74,-272.74,-47,558,-918,21.5,2.9,-25.8,21.8,3.0,-25.3,5.73,2.46,-26.8,27.5
2012-02-11 01:19:00,0.0,1.9019,0.0010,400.28,0.39,86.5,34.8,138.12,28.29,24.60,36.31,0.04,-272.74,-272.74,-47,558,-919,21.6,2.9,-25.7,21.9,3.0,-25.3,5.73,2.32,-26.8,27.5
2012-02-11 01:20:00,0.0,1.9017,0.0009,400.29,0.38,97.1,30.7,138.12,28.29,24.60,36.32,0.04,-272.74,-272.74,-47,559,-919,21.6,2.9,-25.8,21.9,3.0,-25.3,5.73,2.31,-26.8,27.5
2012-02-11 01:21:00,0.0,1.9017,0.0009,400.28,0.40,97.0,35.0,138.12,28.30,24.60,36.32,0.04,-272.74,-272.74,-47,559,-919,21.6,2.9,-25.9,21.9,2.9,-25.4,5.73,2.47,-26.8,27.5
2012-02-11 01:22:00,0.0,1.9015,0.0009,400.32,0.40,96.6,31.3,138.12,28.30,24.60,36.31,0.04,-272.74,-272.74,-47,558,-919,21.6,2.9,-25.8,21.9,3.0,-25.4,5.73,2.25,-26.8,27.5
2012-02-11 01:23:00,0.0,1.9017,0.0009,400.25,0.40,93.5,34.7,138.12,28.31,24.60,36.32,0.04,-272.74,-272.74,-48,559,-919,21.6,2.9,-25.8,21.9,2.9,-25.4,5.73,2.43,-26.8,27.5
2012-02-11 01:24:00,0.0,1.9019,0.0008,400.37,0.34,98.7,33.4,138.12,28.31,24.60,36.31,0.04,-272.74,-272.74,-50,558,-921,21.6,2.9,-25.9,21.9,3.0,-25.4,5.73,2.38,-26.8,27.5
2012-02-11 01:25:00,0.0,1.9025,0.0008,400.25,0.42,96.9,29.4,138.12,28.32,24.60,36.32,0.04,-272.74,-272.74,-46,561,-919,21.6,2.9,-25.9,21.9,2.9,-25.5,5.73,2.27,-26.8,27.5
2012-02-11 01:26:00,0.0,1.9026,0.0009,400.25,0.36,94.3,29.6,138.12,28.32,24.59,36.32,0.04,-272.74,-272.74,-47,558,-919,21.6,2.8,-26.0,21.9,2.9,-25.5,5.73,2.48,-26.8,27.6
2012-02-11 01:27:00,0.0,1.9019,0.0010,400.23,0.41,96.1,32.8,138.12,28.33,24.60,36.32,0.04,-272.73,-272.74,-47,560,-919,21.7,2.8,-26.0,21.9,2.9,-25.6,5.73,2.26,-26.7,27.6
2012-02-11 01:28:00,0.0,1.9017,0.0010,400.14,0.36,107.7,30.8,138.12,28.33,24.60,36.32,0.04,-272.74,-272.74,-47,559,-919,21.7,2.9,-25.9,21.9,2.9,-25.5,5.73,2.42,-26.7,27.6
2012-02-11 01:29:00,0.0,1.9012,0.0009,400.15,0.42,100.6,30.5,138.11,28.34,24.60,36.32,0.04,-272.74,-272.74,-47,559,-919,21.7,2.9,-25.8,21.9,3.0,-25.4,5.73,2.36,-26.7,27.6
2012-02-11 01:30:00,0.0,1.9012,0.0009,400.33,0.38,103.8,34.3,138.12,28.34,24.60,36.31,0.04,-272.74,-272.74,-47,559,-919,21.6,2.9,-25.8,21.9,3.0,-25.4,5.73,2.29,-26.7,27.7
2012-02-11 01:31:00,0.0,1.9019,0.0008,400.28,0.35,100.9,32.9,138.11,28.34,24.60,36.31,0.04,-272.74,-272.74,-47,559,-919,21.6,2.9,-25.8,21.9,2.9,-25.4,5.73,2.47,-26.7,27.7
2012-02-11 01:32:00,0.0,1.9022,0.0008,400.29,0.38,99.6,34.5,138.11,28.35,24.60,36.32,0.04,-272.74,-272.74,-47,559,-919,21.6,2.8,-26.0,21.9,2.9,-25.5,5.73,2.25,-26.7,27.7
2012-02-11 01:33:00,0.0,1.9021,0.0008,400.25,0.39,109.0,33.8,138.11,28.35,24.60,36.32,0.04,-272.73,-272.74,-47,559,-919,21.6,2.8,-26.0,21.9,2.9,-25.6,5.73,2.43,-26.7,27.7
2012-02-11 01:34:00,0.0,1.9018,0.0008,400.22,0.38,106.2,33.5,138.11,28.36,24.60,36.32,0.04,-272.74,-272.74,-47,559,-919,21.7,2.8,-26.0,22.0,2.9,-25.6,5.73,2.35,-26.7,27.6
2012-02-11 01:35:00,0.0,1.9017,0.0010,400.29,0.35,108.9,32.5,138.11,28.36,24.60,36.32,0.04,-272.73,-272.74,-47,559,-919,21.7,2.8,-25.9,22.0,2.9,-25.5,5.73,2.32,-26.7,27.6
2012-02-11 01:36:00,0.0,1.9017,0.0009,400.15,0.37,99.3,33.0,138.11,28.37,24.60,36.32,0.04,-272.74,-272.74,-47,560,-919,21.7,2.8,-26.0,22.0,2.9,-25.4,5.73,2.45,-26.6,27.7
2012-02-11 01:37:00,0.0,1.9012,0.0009,400.16,0.38,108.9,30.9,138.11,28.38,24.60,36.32,0.04,-272.73,-272.74,-47,560,-919,21.7,2.9,-25.8,22.0,2.9,-25.4,5.73,2.25,-26.6,27.7
2012-02-11 01:38:00,0.0,1.9013,0.0010,400.16,0.34,100.1,35.1,138.11,28.38,24.60,36.32,0.04,-272.73,-272.74,-47,559,-919,21.7,2.9,-25.7,22.0,3.0,-25.3,5.73,2.48,-26.6,27.7
2012-02-11 01:39:00,0.0,1.9014,0.0009,400.02,0.34,106.1,35.0,138.11,28.38,24.60,36.33,0.04,-272.74,-272.74,-47,559,-919,21.7,2.9,-25.7,22.0,3.0,-25.2,5.73,2.27,-26.6,27.7
2012-02-11 01:40:00,0.0,1.9018,0.0009,400.14,0.33,107.5,34.5,138.11,28.39,24.60,36.32,0.04,-272.73,-272.74,-47,560,-919,21.7,2.9,-25.8,22.0,3.0,-25.2,5.73,2.40,-26.6,27.7
2012-02-11 01:41:00,0.0,1.9015,0.0007,400.29,0.39,106.4,29.5,138.11,28.39,24.60,36.32,0.04,-272.74,-272.73,-47,560,-919,21.7,2.9,-25.7,22.0,3.0,-25.2,5.73,2.36,-26.6,27.7
2012-02-11 01:42:00,0.0,1.9015,0.0008,400.13,0.38,97.2,34.5,138.11,28.40,24.60,36.33,0.04,-272.74,-272.74,-47,560,-919,21.7,2.9,-25.7,22.1,3.0,-25.1,5.73,2.32,-26.6,27.8
2012-02-11 01:43:00,0.0,1.9017,0.0009,400.27,0.36,102.5,32.4,138.11,28.40,24.60,36.32,0.04,-272.74,-272.74,-47,560,-919,21.7,2.9,-25.6,22.1,3.0,-25.1,5.73,2.43,-26.6,27.7
2012-02-11 01:44:00,0.0,1.9017,0.0008,400.20,0.41,95.7,33.3,138.11,28.41,24.60,36.32,0.04,-272.73,-272.74,-47,560,-919,21.7,2.9,-25.5,22.1,3.0,-25.1,5.73,2.25,-26.6,27.8
2012-02-11 01:45:00,0.0,1.9012,0.0010,400.28,0.36,111.7,38.7,138.11,28.41,24.60,36.32,0.04,-272.74,-272.74,-48,560,-919,21.8,3.0,-25.5,22.1,3.0,-25.1,5.73,2.48,-26.6,27.8
2012-02-11 01:46:00,0.0,1.9008,0.0008,400.13,0.33,109.9,35.8,138.11,28.42,24.60,36.32,0.04,-272.74,-272.74,-47,560,-919,21.7,3.0,-25.4,22.1,3.1,-24.9,5.73,2.25,-26.6,27.8
2012-02-11 01:47:00,0.0,1.9012,0.0010,400.11,0.43,104.3,34.3,138.11,28.43,24.60,36.33,0.04,-272.74,-272.74,-47,560,-919,21.8,3.0,-25.3,22.1,3.1,-24.8,5.73,2.44,-26.6,27.8
2012-02-11 01:48:00,0.0,1.9011,0.0008,400.07,0.32,103.2,30.3,138.11,28.43,24.60,36.33,0.04,-272.74,-272.74,-48,560,-919,21.8,3.0,-25.3,22.1,3.1,-24.8,5.73,2.31,-26.6,27.8
2012-02-11 01:49:00,0.0,1.9010,0.0008,400.20,0.40,109.5,36.2,138.11,28.44,24.60,36.32,0.04,-272.74,-272.74,-47,560,-919,21.8,3.0,-25.2,22.1,3.1,-24.8,5.73,2.36,-26.5,27.8
2012-02-11 01:50:00,0.0,1.9015,0.0009,400.12,0.39,110.4,33.8,138.11,28.45,24.60,36.32,0.04,-272.74,-272.74,-48,560,-919,21.8,3.0,-25.3,22.1,3.1,-24.7,5.73,2.38,-26.5,27.8
2012-02-11 01:51:00,0.0,1.9012,0.0010,400.14,0.31,109.9,36.6,138.11,28.45,24.60,36.33,0.04,-272.74,-272.73,-48,560,-918,21.8,3.0,-25.2,22.1,3.1,-24.7,5.73,2.31,-26.6,27.8
2012-02-11 01:52:00,0.0,1.9013,0.0008,400.15,0.36,103.9,37.4,138.11,28.46,24.60,36.33,0.04,-272.74,-272.74,-48,560,-919,21.8,3.0,-25.2,22.1,3.1,-24.7,5.73,2.42,-26.5,27.9
2012-02-11 01:53:00,0.0,1.9009,0.0008,400.14,0.33,107.5,34.2,138.11,28.46,24.60,36.32,0.04,-272.74,-272.74,-48,561,-918,21.8,3.0,-25.2,22.1,3.1,-24.7,5.73,2.26,-26.6,27.9
2012-02-11 01:54:00,0.0,1.9000,0.0009,400.06,0.36,108.5,31.1,138.11,28.47,24.60,36.33,0.04,-272.74,-272.73,-48,560,-918,21.8,3.1,-24.9,22.1,3.2,-24.4,5.73,2.45,-26.5,27.9
2012-02-11 01:55:00,0.0,1.9004,0.0009,400.08,0.32,106.7,29.8,138.11,28.47,24.60,36.33,0.04,-272.74,-272.74,-48,560,-918,21.8,3.1,-24.8,22.1,3.2,-24.3,5.73,2.24,-26.5,27.9
2012-02-11 01:56:00,0.0,1.8996,0.0012,400.05,0.32,106.3,33.2,138.11,28.48,24.60,36.33,0.04,-272.74,-272.74,-48,561,-918,21.8,3.1,-24.8,22.1,3.2,-24.3,5.73,2.46,-26.5,27.9
2012-02-11 01:57:00,0.0,1.9007,0.0010,400.15,0.39,99.4,32.9,138.11,28.48,24.60,36.32,0.04,-272.73,-272.74,-48,560,-918,21.8,3.1,-25.0,22.1,3.1,-24.5,5.73,2.23,-26.5,27.9
2012-02-11 01:58:00,0.0,1.9001,0.0009,400.16,0.31,96.3,35.2,138.11,28.49,24.60,36.33,0.04,-272.73,-272.74,-49,560,-918,21.8,3.1,-24.9,22.1,3.2,-24.4,5.73,2.46,-26.5,27.9
2012-02-11 01:59:00,0.0,1.9005,0.0011,400.14,0.35,108.0,35.4,138.11,28.49,24.60,36.32,0.04,-272.74,-272.74,-48,561,-918,21.8,3.1,-24.9,22.1,3.2,-24.4,5.73,2.24,-26.5,27.8
2012-02-11 02:00:00,0.0,1.9001,0.0009,400.09,0.33,103.6,32.1,138.11,28.50,24.60,36.32,0.04,-272.74,-272.74,-49,561,-917,21.8,3.1,-24.9,22.1,3.2,-24.4,5.73,2.46,-26.5,27.8
2012-02-11 02:01:00,0.0,1.8998,0.0008,400.06,0.30,104.2,35.2,138.11,28.50,24.60,36.33,0.04,-272.74,-272.73,-48,560,-917,21.8,3.1,-24.8,22.1,3.2,-24.3,5.73,2.25,-26.5,27.8
2012-02-11 02:02:00,0.0,1.8999,0.0010,400.12,0.34,107.8,34.3,138.11,28.51,24.60,36.32,0.04,-272.74,-272.74,-49,560,-918,21.8,3.1,-24.8,22.1,3.2,-24.3,5.73,2.44,-26.5,27.9
2012-02-11 02:03:00,0.0,1.9001,0.0007,400.08,0.31,93.4,36.3,138.11,28.51,24.60,36.33,0.04,-272.74,-272.74,-49,561,-917,21.8,3.1,-24.8,22.1,3.2,-24.3,5.73,2.26,-26.5,27.9
2012-02-11 02:04:00,0.0,1.8999,0.0009,400.07,0.29,103.1,36.5,138.11,28.52,24.60,36.32,0.04,-272.74,-272.74,-48,561,-918,21.8,3.2,-24.7,22.1,3.2,-24.2,5.73,2.42,-26.5,27.9
2012-02-11 02:05:00,0.0,1.9001,0.0009,400.16,0.32,101.2,30.7,138.11,28.52,24.60,36.32,0.04,-272.74,-272.74,-49,560,-917,21.8,3.2,-24.6,22.1,3.3,-24.1,5.73,2.28,-26.5,27.9
2012-02-11 02:06:00,0.0,1.9000,0.0009,400.21,0.38,98.5,33.7,138.11,28.52,24.61,36.32,0.04,-272.74,-272.74,-48,561,-917,21.8,3.2,-24.6,22.1,3.3,-24.1,5.73,2.40,-26.6,27.9
2012-02-11 02:07:00,0.0,1.8998,0.0009,400.10,0.31,108.0,34.5,138.11,28.53,24.61,36.33,0.04,-272.74,-272.74,-49,561,-917,21.7,3.1,-24.8,22.1,3.2,-24.3,5.73,2.29,-26.6,28.0
2012-02-11 02:08:00,0.0,1.8997,0.0009,400.05,0.32,97.6,30.6,138.11,28.53,24.60,36.33,0.04,-272.74,-272.74,-48,560,-917,21.7,3.2,-24.7,22.1,3.3,-24.2,5.73,2.39,-26.6,28.0
2012-02-11 02:09:00,0.0,1.8999,0.0008,399.95,0.37,102.2,37.5,138.11,28.53,24.60,36.33,0.04,-272.74,-272.74,-49,560,-917,21.7,3.2,-24.7,22.1,3.3,-24.2,5.73,2.31,-26.6,28.0
2012-02-11 02:10:00,0.0,1.9005,0.0010,400.02,0.38,104.1,35.5,138.11,28.54,24.60,36.33,0.04,-272.74,-272.74,-49,561,-917,21.7,3.1,-24.8,22.1,3.2,-24.3,5.73,2.37,-26.6,28.0
2012-02-11 02:11:00,0.0,1.9003,0.0010,400.07,0.35,100.4,26.9,138.11,28.54,24.60,36.33,0.04,-272.73,-272.74,-48,560,-917,21.7,3.1,-24.9,22.1,3.2,-24.4,5.73,2.34,-26.6,28.1
2012-02-11 02:12:00,0.0,1.9005,0.0009,400.10,0.28,103.8,26.9,138.11,28.55,24.60,36.33,0.04,-272.74,-272.74,-49,560,-917,21.7,3.2,-24.8,22.1,3.2,-24.3,5.73,2.34,-26.6,28.1
2012-02-11 02:13:00,0.0,1.9007,0.0009,400.09,0.33,98.1,36.8,138.11,28.55,24.60,36.33,0.04,-272.74,-272.74,-48,560,-917,21.7,3.2,-24.7,22.1,3.3,-24.2,5.73,2.35,-26.6,28.0
2012-02-11 02:14:00,0.0,1.9005,0.0008,400.06,0.36,108.2,30.3,138.11,28.55,24.60,36.33,0.04,-272.73,-272.74,-49,560,-917,21.7,3.2,-24.8,22.1,3.3,-24.2,5.73,2.34,-26.6,28.0
2012-02-11 02:15:00,0.0,1.9003,0.0010,400.03,0.26,104.9,37.6,138.11,28.56,24.60,36.33,0.04,-272.74,-272.74,-48,560,-917,21.7,3.2,-24.7,22.0,3.3,-24.2,5.73,2.36,-26.6,28.0
2012-02-11 02:16:00,0.0,1.8997,0.0009,399.96,0.35,103.1,33.0,138.11,28.56,24.60,36.33,0.04,-272.74,-272.74,-49,560,-917,21.7,3.2,-24.5,22.0,3.3,-24.0,5.73,2.33,-26.6,27.9
2012-02-11 02:17:00,0.0,1.9003,0.0009,400.04,0.30,109.4,32.1,138.11,28.56,24.60,36.33,0.04,-272.74,-272.74,-48,560,-917,21.7,3.3,-24.5,22.0,3.3,-24.0,5.73,2.37,-26.6,28.0